Location: Quebec
(46.8000°N, 71.2500°W)
Time: 22:12:40
(UTC-04:00)

Vanguard 3 - Visible Passes

Search period start: 17 October 2017 00:00
Search period end: 27 October 2017 00:00
Orbit: 510 x 3263 km, 33.3° (Epoch: 17 October)

Date Brightness Start Highest point End Pass type
(mag) Time Alt. Az. Time Alt. Az. Time Alt. Az.
17 Oct 10.1 05:18:38 10° SSW 05:26:34 21° SSE 05:32:07 10° ESE visible
18 Oct 10.4 04:05:33 12° S 04:12:25 18° SSE 04:18:22 10° ESE visible
18 Oct 9.6 06:16:11 10° SW 06:24:45 27° S 06:30:21 10° ESE visible
19 Oct 10.8 02:56:20 13° SSE 02:58:01 14° SSE 03:03:11 10° SE visible
19 Oct 10.0 05:00:56 10° SW 05:10:49 26° SSE 05:17:24 10° ESE visible
20 Oct 10.3 03:51:38 19° S 03:56:31 23° SSE 04:03:52 10° ESE visible
20 Oct 9.6 05:59:00 10° SW 06:09:05 31° S 06:15:25 10° ESE visible
21 Oct 10.7 02:42:14 18° SSE 02:42:14 18° SSE 02:49:19 10° ESE visible
21 Oct 9.9 04:46:51 17° SW 04:54:59 31° S 05:02:30 10° ESE visible
22 Oct 10.2 03:37:23 25° S 03:40:29 27° SSE 03:49:02 10° ESE visible
22 Oct 9.6 05:41:58 10° WSW 05:53:18 35° S 06:00:22 10° ESE visible
23 Oct 10.6 02:27:52 22° SE 02:27:52 22° SE 02:34:44 10° ESE visible
23 Oct 9.8 04:32:27 24° SSW 04:39:01 35° S 04:47:26 10° ESE visible
23 Oct 9.4 06:40:59 10° WSW 06:51:23 34° S 06:57:46 10° SE visible
24 Oct 11.1 01:18:18 11° ESE 01:18:18 11° ESE 01:18:52 10° ESE visible
24 Oct 10.1 03:22:53 32° S 03:24:19 32° SSE 03:33:58 10° ESE visible
24 Oct 9.6 05:27:28 16° WSW 05:37:25 39° S 05:45:13 10° ESE visible
25 Oct 10.5 02:13:16 24° SE 02:13:16 24° SE 02:19:46 10° ESE visible
25 Oct 9.8 04:17:51 31° SSW 04:22:56 39° S 04:32:14 10° ESE visible
25 Oct 9.5 06:24:00 10° WSW 06:35:33 37° SSW 06:42:34 10° SE visible
26 Oct 11.1 01:03:36 11° ESE 01:03:36 11° ESE 01:04:19 10° ESE visible
26 Oct 10.1 03:08:11 36° SSE 03:08:11 36° SSE 03:18:44 10° ESE visible
26 Oct 9.6 05:12:46 22° WSW 05:21:25 42° S 05:29:59 10° ESE visible
